Wind_Speed
41 38 34 31 26 22 19 17 16 17 19 20 19 17 16 14 14 15 14 13 16 15 18 20 19 18 20 24 31 35 29 27 28 23 18 17 9 8 6 13 10 4 3 5 8
33 30 24 23 22 19 17 17 15 16 18 18 17 17 16 13 16 14 12 12 16 17 18 18 18 18 20 23 29 35 33 32 31 24 22 19 14 6 8 3 6 3 16 12 8
16 17 18 18 18 19 19 17 17 17 17 17 16 16 12 17 15 14 12 12 15 17 17 16 18 19 20 22 26 36 34 35 35 28 23 22 13 11 9 4 6 7 12 9 9
16 14 15 17 18 18 18 16 14 14 15 16 15 15 17 18 16 13 11 9 13 14 15 17 18 19 20 21 25 34 38 38 39 32 28 29 24 13 13 12 9 11 14 11 8
14 14 15 17 16 16 15 15 14 15 16 15 17 16 16 15 14 14 13 10 10 13 14 17 20 21 22 23 24 31 39 43 40 36 34 33 28 19 16 16 13 11 14 18 17
14 14 15 15 14 15 15 15 16 16 17 17 17 17 17 18 17 15 15 12 10 10 14 19 21 23 26 27 26 34 40 46 42 39 36 38 39 33 23 14 16 17 15 14 17
12 14 15 15 15 15 16 16 17 17 17 18 19 20 21 17 19 20 18 16 13 13 16 16 18 22 23 25 29 35 38 38 34 37 39 37 36 28 16 15 18 19 19 15 13
13 14 15 15 16 16 15 16 16 17 16 17 19 21 21 22 23 21 21 20 19 17 18 16 16 18 20 22 26 29 31 32 37 39 38 35 30 24 22 21 23 20 19 17 14
13 14 15 15 15 16 15 14 15 15 15 16 18 19 21 22 23 23 24 25 23 23 22 20 18 19 20 22 26 28 31 34 37 38 37 37 31 26 25 24 21 15 14 13 18
14 14 13 13 15 16 17 16 15 14 15 18 20 21 20 20 21 23 25 25 27 27 27 25 24 23 22 24 26 28 31 36 36 40 41 39 35 27 26 24 18 13 15 16 14
13 15 15 15 16 16 17 16 16 14 17 17 18 19 20 22 22 23 25 26 28 27 28 30 27 23 24 27 28 31 32 34 37 43 42 42 42 30 29 22 19 17 17 19 20
18 20 20 21 22 22 23 21 20 19 22 20 22 24 19 19 23 24 26 25 27 27 31 30 24 24 31 32 32 34 35 36 38 40 45 45 44 44 34 27 26 18 19 24 25
22 22 23 23 23 25 26 23 23 23 22 25 24 25 23 24 24 27 24 24 27 30 31 31 23 33 33 34 33 35 37 35 36 42 46 46 46 45 37 32 28 23 23 27 29
14 14 14 15 15 16 17 16 16 18 19 21 24 23 25 26 26 26 26 27 26 29 34 32 30 34 35 37 36 37 34 35 38 42 46 45 48 43 38 39 33 28 29 29 30
16 16 17 17 17 18 19 17 18 19 16 17 19 21 21 21 23 24 25 28 29 32 36 28 31 33 38 35 40 40 36 39 40 44 45 49 46 47 45 43 35 33 34 35 33
16 18 19 18 20 20 20 20 21 21 21 23 23 23 21 23 23 25 24 25 27 28 33 25 32 34 34 33 39 40 40 38 42 42 52 46 45 48 48 41 39 37 40 40 40
10 12 12 13 15 15 17 17 18 21 22 23 24 25 28 23 25 25 26 24 24 28 27 26 30 31 30 30 35 41 38 41 40 41 50 39 44 48 45 44 45 45 45 41 33
10 11 12 12 12 12 13 14 19 23 25 27 25 27 26 25 26 25 25 25 25 25 27 30 31 24 27 33 34 41 40 40 44 45 43 40 51 52 47 49 49 46 41 39 34
13 13 14 14 14 14 15 18 22 26 25 27 26 30 33 31 30 28 26 25 25 27 34 37 32 30 25 29 35 38 48 45 46 46 45 48 54 48 44 44 42 41 41 39 38
12 13 13 13 13 14 15 15 19 22 24 23 24 29 34 37 35 36 36 39 39 38 39 42 39 37 27 31 32 42 45 53 51 51 48 49 47 49 44 44 44 43 42 46 43
12 13 12 14 15 16 17 19 21 23 25 25 23 23 27 31 37 40 41 42 46 44 44 46 46 44 38 39 40 41 47 48 48 47 54 53 55 57 53 48 50 53 51 48 51
12 13 14 14 15 16 19 21 25 25 28 32 32 31 31 31 33 35 34 35 40 43 43 46 52 55 43 45 47 48 53 54 50 49 47 53 63 62 55 54 53 53 50 47 46
13 14 15 18 21 24 25 27 30 31 32 33 37 39 40 42 42 42 42 42 39 36 38 42 45 48 45 44 45 48 45 46 57 59 60 55 46 46 54 52 55 55 55 44 38
16 20 22 25 29 30 31 29 28 31 33 36 42 46 49 50 51 52 49 48 46 43 42 41 43 44 45 44 43 43 38 39 45 48 50 54 54 53 38 39 44 34 36 31 33
20 23 28 32 35 37 36 32 29 30 31 29 37 47 52 55 56 55 56 54 49 50 47 45 42 43 42 41 40 37 36 38 40 47 49 42 45 51 41 39 43 44 39 38 36
22 27 30 34 38 39 36 34 33 34 35 39 41 46 45 48 50 53 51 50 51 48 48 45 46 43 43 38 38 39 39 37 37 39 40 38 36 38 42 40 39 35 33 32 32
24 27 32 36 41 39 37 35 35 35 33 36 39 39 33 30 27 26 25 30 38 41 36 40 43 43 44 41 44 39 37 41 42 40 39 40 40 39 39 39 35 34 35 36 36
Wind_Direction
268 268 270 261 268 269 267 259 251 243 239 242 244 244 239 257 267 272 271 247 238 229 233 235 229 224 224 213 208 204 198 224 237 250 232 248 270 293 318 316 354 3 259 250 207
265 259 256 254 260 260 259 256 253 250 245 247 244 235 241 258 258 267 271 246 236 230 230 233 230 228 224 223 216 209 206 222 235 238 250 256 270 270 284 357 67 122 135 199 228
251 246 249 252 254 256 257 255 256 251 248 244 235 232 231 251 256 260 270 249 233 224 226 231 230 229 224 222 219 216 207 227 237 237 237 254 262 249 271 276 165 140 157 212 253
247 243 247 251 252 257 254 249 240 247 246 227 226 228 219 250 250 254 268 257 233 225 223 224 229 229 227 225 223 218 213 226 238 238 231 253 268 270 275 272 259 237 218 227 239
242 244 249 250 252 253 246 234 234 242 243 237 236 231 235 247 252 248 258 259 244 228 219 218 223 223 222 220 218 227 221 227 240 240 240 240 261 269 282 280 275 267 251 247 246
239 245 248 249 252 252 245 232 232 238 246 237 229 237 241 246 253 247 246 249 251 233 217 214 216 220 220 220 213 228 221 229 241 247 246 247 254 267 285 294 288 282 274 255 242
243 246 246 248 251 249 245 235 234 235 241 240 235 236 243 241 237 243 239 242 240 238 233 226 219 221 226 227 221 227 234 245 254 256 253 256 261 272 286 299 298 291 292 280 241
244 248 247 248 247 246 244 239 234 235 239 238 239 240 236 233 237 244 238 237 234 232 242 239 233 225 226 229 229 232 249 255 255 257 261 269 266 277 288 294 302 298 290 273 240
245 251 248 244 241 242 241 239 235 233 229 232 236 239 241 239 241 241 233 232 234 238 240 245 238 231 220 224 231 236 247 254 258 258 260 266 273 280 287 287 285 295 291 267 252
243 247 245 241 241 243 246 242 239 238 237 238 239 238 238 239 239 242 240 235 231 235 237 236 234 236 228 226 237 239 241 250 256 252 257 262 269 279 278 271 265 282 300 300 284
248 246 247 250 252 253 252 250 251 254 254 248 253 252 247 245 242 239 243 242 238 236 239 239 234 236 234 228 227 237 244 249 256 254 258 260 260 260 255 252 254 269 287 288 290
250 253 258 260 261 263 264 267 264 259 259 255 253 254 249 253 249 243 243 238 243 238 239 240 239 235 233 234 234 233 238 246 251 252 255 256 256 253 252 255 262 271 279 275 281
257 258 259 262 264 267 266 265 263 260 255 259 253 252 246 241 245 245 244 243 240 243 243 243 236 238 236 236 234 235 234 235 244 248 253 254 253 248 254 260 266 271 267 272 286
265 264 266 267 268 269 268 265 264 259 256 252 251 250 249 244 243 249 247 247 246 243 242 242 236 241 241 240 238 234 233 227 228 240 244 247 255 255 259 258 262 266 267 278 283
277 279 278 278 277 281 280 285 282 277 266 253 250 257 255 251 248 244 243 249 247 244 245 238 235 237 242 242 241 235 222 225 229 234 241 245 251 254 254 256 263 273 275 280 285
278 277 277 279 279 280 280 278 274 269 261 255 253 257 258 257 255 253 248 247 252 253 253 245 243 242 243 247 247 242 225 225 226 232 239 244 251 256 257 263 269 272 275 278 284
291 288 287 284 281 281 278 274 266 263 263 257 262 259 257 247 251 254 260 259 254 249 246 245 242 240 241 241 246 245 232 231 234 234 244 250 255 260 265 265 268 271 275 277 265
304 302 301 297 290 284 278 271 263 263 260 254 255 267 269 273 267 264 275 273 277 275 272 258 242 239 231 239 237 236 234 236 246 242 250 261 256 257 263 267 270 273 273 273 271
318 314 310 304 298 293 285 274 277 284 279 274 275 264 268 267 270 268 260 255 253 264 276 277 266 246 238 234 239 232 229 235 242 246 249 251 256 262 263 267 265 270 269 271 272
324 324 328 331 333 327 316 307 294 293 293 292 279 269 265 265 264 266 266 271 273 270 269 271 271 263 245 244 238 238 238 236 237 248 249 251 257 261 261 260 261 262 266 267 262
357 353 357 359 353 340 326 317 311 308 306 304 298 287 281 274 270 268 268 266 267 269 269 269 271 267 266 257 243 241 246 245 243 246 248 249 254 259 259 259 259 260 260 257 259
3 355 355 353 341 333 321 311 307 305 302 299 296 290 283 278 276 272 275 272 268 268 266 264 264 266 270 264 261 238 241 251 253 252 250 251 248 256 255 254 258 265 259 263 265
357 356 348 341 333 324 314 303 298 293 291 289 288 285 282 279 276 272 272 274 272 267 265 263 262 266 267 266 266 270 270 261 248 251 250 254 258 252 250 255 259 261 263 266 272
345 339 334 333 330 327 319 310 296 297 300 302 301 295 290 283 278 274 270 269 269 268 266 262 263 264 266 268 267 267 266 264 268 270 264 247 246 243 246 264 257 245 258 270 273
341 339 336 337 338 334 324 312 302 298 297 308 322 321 294 278 273 271 271 269 267 270 265 265 263 264 266 267 266 265 262 261 261 268 273 274 275 281 279 274 280 288 284 284 282
341 343 341 343 340 335 327 316 307 305 299 307 318 329 313 292 284 276 272 268 267 264 266 265 264 263 264 269 271 274 272 269 267 269 272 276 277 275 275 277 278 282 281 275 271
342 344 343 341 339 334 327 316 311 314 312 326 327 328 320 313 298 300 295 285 278 273 265 265 267 266 265 266 268 261 262 269 275 274 274 276 274 275 278 282 281 276 273 272 270
Height
5874 5874 5875 5875 5876 5875 5875 5874 5875 5876 5877 5879 5880 5881 5883 5883 5883 5883 5881 5882 5882 5883 5882 5882 5884 5886 5888 5890 5891 5892 5892 5891 5892 5895 5899 5898 5897 5898 5898 5901 5905 5906 5902 5905 5905
5868 5868 5869 5870 5871 5871 5871 5871 5872 5873 5874 5876 5877 5878 5879 5880 5880 5879 5879 5878 5878 5879 5880 5880 5882 5884 5886 5888 5889 5889 5891 5889 5889 5893 5895 5897 5897 5900 5900 5902 5905 5906 5905 5905 5904
5864 5864 5865 5866 5867 5867 5867 5867 5868 5869 5870 5872 5873 5875 5876 5877 5876 5876 5875 5875 5875 5876 5878 5878 5880 5881 5883 5884 5886 5886 5890 5889 5888 5890 5894 5894 5894 5897 5898 5901 5903 5906 5905 5906 5904
5861 5861 5862 5863 5863 5863 5863 5863 5864 5866 5867 5868 5870 5871 5873 5873 5874 5872 5872 5872 5872 5873 5875 5876 5877 5878 5879 5881 5882 5883 5886 5885 5886 5888 5892 5892 5893 5895 5896 5898 5900 5902 5902 5902 5901
5858 5858 5858 5859 5859 5859 5859 5860 5861 5863 5864 5866 5867 5868 5869 5870 5870 5869 5870 5870 5869 5870 5872 5873 5873 5874 5875 5876 5879 5877 5880 5881 5883 5886 5887 5890 5891 5892 5894 5895 5895 5896 5897 5898 5897
5855 5855 5855 5856 5856 5856 5857 5857 5859 5860 5861 5862 5863 5864 5865 5867 5866 5867 5867 5867 5867 5867 5868 5868 5869 5870 5871 5872 5875 5870 5872 5875 5878 5881 5884 5885 5886 5888 5891 5891 5890 5889 5890 5891 5891
5851 5852 5853 5853 5853 5854 5854 5854 5855 5857 5858 5859 5859 5860 5862 5864 5863 5862 5863 5864 5864 5864 5864 5865 5866 5867 5869 5870 5871 5868 5868 5872 5875 5876 5877 5880 5881 5885 5888 5888 5886 5885 5884 5885 5887
5849 5849 5849 5849 5850 5851 5851 5852 5852 5853 5854 5855 5855 5856 5858 5858 5857 5859 5860 5860 5860 5859 5862 5863 5863 5865 5867 5867 5869 5869 5868 5869 5870 5872 5875 5875 5878 5880 5882 5883 5882 5880 5880 5880 5881
5846 5846 5846 5846 5847 5848 5849 5849 5849 5850 5850 5850 5851 5852 5853 5854 5853 5855 5855 5855 5856 5856 5856 5859 5860 5861 5863 5864 5864 5864 5865 5866 5867 5869 5871 5871 5872 5875 5877 5877 5876 5877 5876 5875 5875
5843 5844 5844 5843 5844 5845 5845 5845 5846 5847 5847 5847 5847 5849 5849 5850 5849 5849 5850 5851 5850 5851 5852 5854 5855 5857 5858 5859 5859 5861 5861 5861 5864 5867 5865 5865 5867 5869 5870 5871 5871 5871 5870 5870 5870
5841 5841 5841 5841 5841 5841 5842 5842 5846 5846 5844 5844 5844 5843 5844 5844 5844 5844 5845 5846 5847 5848 5848 5847 5851 5853 5854 5853 5854 5853 5854 5855 5858 5860 5858 5861 5861 5863 5864 5866 5867 5866 5866 5866 5866
5837 5838 5838 5837 5837 5837 5838 5839 5840 5841 5839 5840 5838 5837 5840 5839 5838 5839 5840 5842 5842 5843 5842 5844 5847 5848 5845 5846 5847 5847 5848 5849 5851 5851 5850 5853 5853 5854 5858 5860 5859 5861 5862 5860 5861
5833 5833 5833 5832 5832 5832 5832 5834 5833 5833 5833 5832 5832 5831 5833 5833 5832 5831 5834 5835 5836 5836 5836 5836 5842 5837 5839 5839 5841 5842 5842 5847 5848 5845 5843 5844 5843 5848 5851 5851 5851 5853 5854 5854 5855
5829 5829 5828 5828 5829 5827 5827 5827 5827 5826 5826 5827 5824 5825 5825 5827 5827 5827 5828 5829 5830 5830 5827 5830 5832 5831 5832 5832 5834 5835 5838 5840 5839 5838 5836 5837 5832 5836 5842 5842 5845 5847 5848 5849 5849
5828 5827 5826 5825 5825 5824 5824 5823 5822 5822 5821 5821 5819 5818 5819 5821 5821 5820 5822 5820 5820 5821 5820 5826 5824 5823 5822 5826 5824 5826 5827 5827 5827 5827 5826 5824 5825 5828 5829 5832 5839 5840 5841 5842 5841
5824 5823 5823 5822 5821 5820 5819 5819 5817 5817 5816 5814 5814 5814 5815 5813 5812 5811 5813 5814 5813 5814 5813 5820 5817 5814 5816 5819 5816 5818 5819 5817 5817 5817 5810 5817 5818 5816 5819 5826 5827 5830 5831 5833 5833
5821 5820 5820 5819 5818 5816 5815 5814 5814 5811 5811 5810 5809 5809 5808 5810 5806 5806 5806 5807 5808 5805 5807 5808 5809 5808 5809 5809 5813 5811 5812 5810 5809 5807 5803 5812 5809 5808 5812 5816 5817 5820 5821 5823 5824
5819 5818 5817 5815 5814 5812 5812 5811 5808 5806 5804 5803 5804 5803 5803 5803 5803 5802 5802 5800 5798 5799 5799 5800 5803 5802 5800 5799 5801 5803 5803 5802 5799 5801 5802 5803 5797 5800 5807 5806 5809 5811 5811 5812 5815
5817 5815 5814 5812 5810 5809 5808 5806 5804 5801 5802 5801 5802 5800 5798 5797 5796 5795 5794 5794 5793 5792 5792 5789 5792 5796 5794 5792 5793 5795 5793 5794 5790 5791 5792 5793 5792 5795 5796 5798 5801 5802 5801 5803 5804
5815 5813 5811 5809 5808 5806 5805 5803 5800 5799 5797 5797 5797 5795 5793 5791 5792 5791 5789 5787 5784 5783 5782 5779 5781 5782 5790 5787 5786 5782 5784 5783 5784 5782 5782 5783 5784 5785 5788 5789 5790 5790 5791 5792 5792
5813 5811 5810 5808 5806 5804 5801 5799 5796 5794 5792 5791 5790 5788 5786 5784 5782 5780 5778 5779 5775 5774 5773 5770 5769 5772 5778 5778 5778 5778 5773 5772 5775 5775 5772 5773 5775 5774 5776 5778 5780 5779 5780 5781 5781
5814 5812 5810 5808 5806 5802 5799 5796 5792 5790 5786 5782 5779 5777 5775 5773 5770 5767 5766 5765 5765 5763 5761 5760 5757 5759 5763 5761 5760 5764 5764 5761 5760 5761 5762 5763 5764 5765 5765 5767 5767 5768 5768 5770 5770
5813 5811 5809 5806 5803 5799 5795 5789 5784 5780 5777 5774 5769 5767 5763 5760 5758 5754 5753 5751 5750 5749 5748 5748 5748 5746 5748 5750 5750 5749 5749 5749 5750 5747 5749 5750 5754 5753 5754 5754 5756 5757 5758 5759 5758
5811 5808 5805 5801 5797 5793 5788 5784 5778 5772 5768 5765 5759 5754 5750 5748 5743 5739 5738 5737 5737 5736 5735 5735 5735 5735 5736 5736 5736 5737 5737 5738 5737 5735 5734 5739 5741 5744 5743 5744 5744 5742 5744 5743 5744
5809 5805 5800 5795 5790 5784 5779 5774 5770 5765 5760 5754 5748 5741 5734 5729 5727 5723 5720 5721 5724 5720 5721 5723 5724 5724 5724 5724 5724 5724 5727 5728 5728 5726 5726 5731 5730 5731 5731 5733 5733 5731 5731 5732 5733
5806 5801 5795 5790 5784 5777 5771 5765 5760 5754 5749 5743 5735 5724 5718 5711 5705 5703 5701 5704 5703 5708 5708 5712 5711 5712 5714 5714 5711 5714 5716 5717 5717 5717 5718 5719 5721 5723 5722 5724 5725 5723 5723 5724 5724
5802 5797 5791 5786 5779 5771 5764 5757 5751 5745 5738 5731 5723 5714 5708 5700 5694 5692 5688 5688 5688 5693 5697 5697 5698 5700 5702 5705 5702 5706 5706 5707 5708 5708 5708 5707 5708 5710 5711 5711 5713 5713 5713 5714 5714